NOAA 16 DEB

Satellite information

Favourite Embed

Satellite Type and Status

DEBRISIN ORBIT

Key statistics

Satellite NOAA 16 DEB at a glance.

Uptime

9109

Days in orbit

Revolutions

≈ 14.1

Per day

Orbit

SSO

Sun Synchronous Orbit

Inclination

98.6

Latest

Satellite identification and parameters

Extended collection of information and parameters for NOAA 16 DEB.

Object identification

Identified? True

Debris? True

Object name: NOAA 16 DEB

International designator: 2000-055PE

Object number (NORAD): 41665

Object ID (CCSDS): 41665

Country: UNITED STATES OF AMERICA (US)

Current information (Y/N): Y

RCS size: SMALL

Orbital parameters

Period: 102.205 minutes

Inclination: 98.6362 deg

SMA: 7241.172 km

Apoapsis: 891.561 km

Periapsis: 834.514 km

RAAN: 236.6151 deg

Eccentricy: 0.00393911

Argument of periapsis: 306.7566 deg

Mean anomaly: 52.9991 deg

Mean motion: 14.08930018 rev/day

Mean motion (dot): 0.00000971 rev/day2

B* drag term: 0.00058153087 1/REarth

Two-line elements (TLE)

Creation date: Aug. 29, 2025, 9:54 a.m.

Reference frame: TEME

Reference center: EARTH

Epoch: Aug. 29, 2025, 5:29 a.m. UTC

TLE line 0: 0 NOAA 16 DEB

TLE line 1: 1 41665U 00055PE 25241.22899628 .00000971 00000-0 58153-3 0 9994

TLE line 2: 2 41665 98.6362 236.6151 0039391 306.7566 52.9991 14.08930018480067

Live tracking on map

Real-time ground track for satellite NOAA 16 DEB.

In-orbit conjunctions

A list of the most updated potential collisions computed for object NOAA 16 DEB.

Target Orbit TCA Probability of collision Miss distance Type
FENGYUN 1B SSO 2025-01-13 17:49:10 0.0001337407 722.0 (m) PAYLOAD
ATLAS CENTAUR 2 DEB LEO 2024-11-23 19:23:44 0.0001605167 72.0 (m) DEBRIS
METEOR 1-17 DEB LEO 2024-11-13 10:02:59 0.00012026 541.0 (m) DEBRIS
METEOR 1-17 DEB LEO 2024-11-13 08:20:55 0.0006534881 359.0 (m) DEBRIS
METEOR 1-17 DEB LEO 2024-11-09 00:20:06 0.0001469446 637.0 (m) DEBRIS

Associated space launch

The NOAA K, L and M POES satellites begin the fifth generation of improved environmental monitoring in support of NOAA missions. The instrument payload has significant improvements and additions/deletions. The instrument changes have effected the spacecraft subsystems and data formats.

NOAA 16 DEB was lifted into orbit during the mission ‘Titan II SLV | NOAA 16’, on board a Titan II SLV space rocket.

The launch took place on Sept. 21, 2000, 10:22 a.m. from Space Launch Complex 4W.

For more information about the launch, click the button.

Launch to space Titan II SLV | NOAA 16
Titan II SLV | NOAA 16

Agency: N/A

Status: Launch Successful

Launch date: Sept. 21, 2000, 10:22 a.m. UTC

Rocket: Titan II SLV

Launch pad: Space Launch Complex 4W

Location: Vandenberg SFB, CA, USA

...

Latest news about this satellite

There are no fresh news available about this satellite. Check back as we update our databases every day.


Newsletter sign-up

Weekly statistics, charts and insights to help you stay on top of the space industry.